This demonstration page uses our WeatherBlox Daily Observations layout. Learn more.

Left ArrowRight Arrow

Hourly Observations for January 6, 2019

Temp ( °F °C ) Dew Point ( °F °C ) Humidity (%) Winds ( mph kmh ) Pressure ( in mb ) Visibility ( mi km ) Precip ( " mm )
12:51 am 00:51 Cloudy 49 9.4 39 3.9 69 69 SE 14 22 29.95 1014 10 16 N/A
1:51 am 01:51 Cloudy 48 8.9 41 5 77 77 SSE 12 19 29.94 1014 10 16 N/A
2:51 am 02:51 Cloudy 49 9.4 41 5 74 74 SE 15 24 29.93 1013 10 16 N/A
3:51 am 03:51 Cloudy 49 9.4 41 5 74 74 ESE 9 15 29.91 1013 10 16 N/A
4:51 am 04:51 Cloudy 46 7.8 42 5.6 86 86 S 6 9 29.91 1013 10 16 N/A
5:51 am 05:51 Cloudy 45 7.2 43 6.1 93 93 WNW 5 7 29.91 1013 10 16 N/A
6:16 am 06:16 Cloudy with Light Rain 43 6 43 6 100 100 NW 6 9 30.00 1016 8 13 N/A
6:51 am 06:51 Cloudy with Light Rain 42 5.6 42 5.6 100 100 WNW 12 19 29.95 1014 6 10 0.02 0.51
7:07 am 07:07 Cloudy with Light Rain 42 5.6 42 5.6 100 100 WNW 10 17 30.00 1016 5 8 0.01 0.25
7:16 am 07:16 Cloudy with Light Rain 43 6 43 6 100 100 WNW 10 17 30.00 1016 5 8 N/A
7:51 am 07:51 Cloudy with Light Rain 43 6.1 43 6.1 100 100 WNW 9 15 29.96 1015 2 2 0.03 0.76
8:02 am 08:02 Cloudy with Light Rain 43 6 43 6 100 100 WNW 9 15 30.03 1017 1 1 N/A
8:44 am 08:44 Cloudy with Light Rain 44 6.7 44 6.7 100 100 NW 7 11 30.06 1018 2 3 0.04 1.02
8:51 am 08:51 Cloudy with Light Rain 44 6.7 44 6.7 100 100 WNW 8 13 29.98 1015 6 10 0.04 1.02
9:19 am 09:19 Cloudy with Light Rain 46 7.8 45 7.2 96 96 WNW 9 15 30.03 1017 9 14 0.01 0.25
9:51 am 09:51 Cloudy with Light Rain 47 8.3 45 7.2 93 93 WNW 15 24 30.01 1016 10 16 0.02 0.51
10:51 am 10:51 Cloudy 48 8.9 45 7.2 89 89 WNW 12 19 30.02 1017 10 16 0.01 0.25
11:51 am 11:51 Cloudy 48 8.9 44 6.7 86 86 NW 12 19 29.99 1016 10 16 N/A
12:51 pm 12:51 Mostly Sunny 50 10 43 6.1 77 77 NW 20 31 29.96 1015 10 16 N/A
1:51 pm 13:51 Mostly Sunny 52 11.1 42 5.6 69 69 WNW 17 28 29.97 1015 10 16 N/A
2:51 pm 14:51 Mostly Sunny 54 12.2 42 5.6 64 64 NNW 15 24 29.97 1015 10 16 N/A
3:51 pm 15:51 Cloudy 54 12.2 42 5.6 64 64 NW 14 22 29.99 1016 10 16 N/A
4:51 pm 16:51 Mostly Sunny 50 10 42 5.6 74 74 WNW 13 20 30.02 1017 10 16 N/A
5:51 pm 17:51 Clear 47 8.3 42 5.6 83 83 NNW 12 19 30.05 1018 10 16 N/A
6:51 pm 18:51 Clear 45 7.2 41 5 86 86 WNW 8 13 30.08 1019 10 16 N/A
7:51 pm 19:51 Clear 43 6.1 40 4.4 89 89 W 9 15 30.12 1020 10 16 N/A
8:51 pm 20:51 Clear 41 5 40 4.4 96 96 W 10 17 30.14 1021 10 16 N/A
9:51 pm 21:51 Clear 38 3.3 38 3.3 100 100 N N/A 30.16 1022 10 16 N/A
10:51 pm 22:51 Clear 40 4.4 38 3.3 93 93 N N/A 30.18 1022 10 16 N/A
11:51 pm 23:51 Cloudy 39 3.9 39 3.9 100 100 NNE 6 9 30.19 1022 10 16 N/A

Powered by AerisWeather